Wind_Speed
22 22 22 24 27 28 32 39 37 38 40 39 41 42 39 37 33 28 24 24 26 25 25 25 23 20 17 16 19 20 20 19 19 20 22 24 27 29 30 32 33 34 35 35 33 31 29 27 27 26 27 27
22 22 24 24 28 30 33 40 39 38 40 42 42 39 37 34 27 24 28 29 27 26 27 26 27 27 26 25 24 23 22 21 22 23 24 26 27 30 32 33 34 34 34 35 35 32 29 27 26 25 26 27
20 20 22 23 25 22 25 24 26 32 33 36 35 30 29 25 22 23 25 25 24 25 26 26 29 30 31 30 25 21 20 20 21 24 25 27 28 30 31 33 33 33 33 33 33 32 29 26 24 24 24 25
19 19 19 20 20 18 20 18 23 27 29 30 25 22 24 24 23 23 23 23 23 24 26 27 27 26 26 24 21 18 17 17 18 20 23 25 27 31 32 32 33 32 32 31 31 30 27 25 24 24 24 24
20 19 16 17 19 18 23 27 27 29 30 29 26 23 24 25 24 23 23 24 24 24 24 23 21 20 20 19 18 17 16 16 17 18 20 22 26 30 31 31 31 32 33 32 30 28 27 26 25 24 24 24
20 19 17 18 21 21 23 26 27 28 29 30 30 26 24 25 25 26 26 25 24 22 20 18 17 17 18 17 16 16 16 16 17 18 20 21 24 28 28 29 30 32 34 33 31 29 28 28 26 24 24 24
22 21 20 20 21 21 21 24 26 29 30 30 30 28 27 26 25 27 27 25 24 21 18 17 17 17 16 15 13 14 15 16 16 17 19 19 22 23 23 25 27 29 32 32 31 29 28 27 25 25 24 24
25 23 22 21 21 21 23 25 25 28 31 30 30 31 32 29 26 26 27 26 25 22 19 18 18 18 16 14 12 13 15 16 17 17 18 18 19 19 18 21 23 26 28 29 29 28 27 26 24 23 24 24
27 25 24 21 21 24 28 29 26 28 30 29 31 32 34 31 26 25 27 28 27 24 20 18 18 18 15 13 11 13 16 18 20 20 19 18 19 18 18 19 20 23 25 26 27 27 26 25 24 22 22 22
28 27 26 23 23 25 29 32 31 30 29 29 30 30 33 32 26 26 28 28 26 24 20 18 18 17 15 13 12 13 16 19 23 25 24 22 21 20 20 19 20 21 22 24 26 27 26 25 25 23 21 21
27 27 27 26 26 26 26 30 34 34 32 29 30 29 29 30 28 29 30 28 25 23 22 21 20 18 15 14 13 13 15 19 23 26 29 28 25 23 22 22 22 23 22 22 23 24 25 26 25 24 22 21
25 27 27 26 26 28 26 28 33 40 42 35 28 29 30 33 31 30 29 26 25 27 28 26 23 19 17 15 14 14 15 17 19 21 25 28 30 29 28 26 25 25 25 24 23 23 23 23 24 24 23 22
23 25 26 25 25 27 28 28 29 35 45 40 31 31 34 34 31 30 28 26 29 32 32 28 24 20 19 17 16 15 15 15 15 15 17 20 24 28 31 32 32 30 29 27 26 25 25 25 24 24 23 23
23 24 24 24 24 25 28 30 29 30 36 38 35 33 34 32 30 29 29 28 31 34 31 25 24 21 19 18 17 16 16 16 14 14 15 15 17 20 24 29 32 35 35 34 32 31 30 30 30 28 27 26
24 24 23 23 23 24 26 29 30 31 32 34 35 35 35 34 31 30 31 32 32 32 29 24 23 22 21 20 19 18 18 19 17 15 16 17 17 17 19 21 24 28 32 36 38 39 38 37 36 35 33 33
25 24 23 23 24 25 26 27 29 30 30 32 34 36 37 36 34 33 33 34 31 27 23 20 20 20 20 20 20 20 20 21 20 19 19 20 20 20 20 19 20 21 23 27 31 36 40 42 42 40 39 38
27 26 25 23 25 28 28 27 28 29 29 30 32 35 37 37 37 36 34 34 32 27 21 19 19 18 18 19 20 21 21 23 23 22 22 22 23 22 22 21 21 21 20 21 23 25 30 35 39 41 42 43
29 28 27 25 25 29 31 29 27 28 30 30 31 32 32 34 37 36 34 35 35 31 25 22 21 20 19 20 21 21 22 24 26 26 25 25 25 24 24 24 24 23 22 22 21 22 22 24 28 32 35 39
32 30 28 27 28 30 30 31 30 28 29 31 31 31 29 30 35 36 35 37 37 34 30 27 23 22 22 22 22 23 23 25 27 28 28 28 28 28 28 28 28 27 27 26 25 24 23 23 23 24 26 29
35 33 31 30 31 31 28 30 33 31 30 30 31 33 32 30 33 33 36 40 38 36 37 33 27 25 25 24 25 26 26 27 28 29 30 30 30 30 30 29 29 28 28 29 29 28 27 26 25 24 24 25
35 34 33 32 31 32 30 28 30 30 31 30 30 32 33 34 34 32 37 39 38 39 39 36 32 29 28 27 28 28 29 30 29 30 30 31 31 31 31 29 28 27 28 28 29 30 30 29 29 28 26 26
33 32 32 32 32 33 34 33 29 28 33 34 31 30 32 35 35 36 38 37 38 42 40 40 40 36 32 31 31 30 31 33 32 32 32 32 33 33 32 31 30 29 29 30 30 31 31 31 31 31 30 29
30 30 30 30 31 33 34 35 33 31 33 35 34 32 30 32 35 37 38 37 41 43 40 44 44 38 35 35 36 36 35 35 34 34 35 35 34 34 35 34 33 33 33 33 33 32 32 33 33 32 32 31
27 28 28 28 29 32 32 32 33 33 33 32 34 37 34 32 33 36 37 37 41 40 39 46 47 41 39 38 41 41 38 37 36 35 36 36 37 38 39 39 38 37 36 36 35 34 34 34 34 34 34 34
24 27 28 28 27 30 32 32 33 35 34 30 30 35 37 35 35 37 37 38 39 39 39 45 47 41 34 32 35 35 35 36 36 37 37 37 37 38 40 42 42 40 39 39 38 37 35 34 34 34 35 35
19 23 27 30 30 28 28 32 36 37 36 34 31 30 31 34 36 37 38 38 38 39 39 42 42 36 30 29 29 29 30 32 32 34 36 39 38 37 37 38 40 39 39 40 39 37 35 34 34 34 35 36
14 17 21 27 32 33 31 31 37 39 38 39 37 33 29 30 34 36 37 39 39 40 41 42 42 40 38 35 32 30 30 31 32 31 33 37 40 39 38 36 36 37 37 38 38 37 36 36 35 35 36 35
13 13 15 18 23 29 33 33 34 38 40 40 40 38 34 32 35 37 36 36 38 40 41 42 44 45 44 43 40 35 32 33 35 34 33 34 38 41 41 40 38 37 37 38 38 38 39 38 38 37 35 33
16 15 15 15 17 20 25 29 31 35 38 38 37 39 39 36 36 37 35 32 32 36 38 40 43 44 45 46 47 45 42 40 40 39 37 35 37 40 41 42 42 40 39 38 39 39 39 39 39 37 34 30
21 20 19 19 19 19 19 22 24 28 32 33 32 32 35 37 37 37 37 35 32 33 35 35 36 39 42 44 46 48 47 46 47 46 42 38 38 38 39 42 43 42 41 40 40 39 39 39 39 38 34 32
27 25 25 24 23 23 22 22 22 23 26 28 28 27 28 31 33 35 37 40 40 39 38 36 34 34 36 37 40 42 44 47 50 52 49 45 43 41 41 43 44 42 42 43 43 41 40 40 41 41 38 36
Wind_Direction
285 281 281 278 275 278 267 255 246 237 235 236 236 234 229 222 219 223 240 275 289 279 267 256 250 247 245 258 273 273 270 268 260 252 249 247 245 243 242 242 242 241 241 242 245 246 243 239 236 233 231 230
290 287 283 276 278 274 244 228 226 228 232 232 229 223 217 221 232 244 258 275 280 277 277 268 259 257 259 273 285 280 272 268 260 253 248 246 245 243 242 242 242 242 240 239 240 240 238 236 235 233 232 231
295 294 289 282 281 256 217 213 219 219 220 220 218 218 223 236 254 259 263 271 273 275 277 274 269 266 266 274 284 280 271 265 259 255 250 248 246 245 245 244 242 241 238 237 236 234 231 231 231 232 230 229
294 297 298 292 281 241 227 252 247 234 226 218 223 240 246 249 254 260 267 270 272 275 275 274 272 270 269 273 279 279 274 267 260 257 254 252 248 247 247 246 243 239 235 232 231 229 225 223 224 226 227 227
290 295 299 291 281 259 253 261 258 252 242 239 253 262 254 252 260 268 273 271 271 273 274 273 270 270 271 273 278 279 278 274 268 261 256 251 247 247 248 248 243 238 236 231 228 227 224 221 219 220 223 225
283 286 287 284 279 272 266 268 271 267 259 262 272 272 262 261 270 274 272 270 269 269 268 269 270 271 272 274 278 278 275 273 272 267 262 256 248 247 247 247 242 237 238 234 229 228 228 225 221 219 220 222
276 277 277 279 277 271 271 274 274 274 274 275 278 277 272 272 274 272 269 267 266 264 263 268 270 269 268 267 267 267 265 263 264 262 259 258 253 251 249 247 244 239 238 236 232 230 231 230 227 224 222 223
272 272 273 276 276 270 272 273 272 276 278 278 280 279 277 276 274 270 268 266 263 260 259 263 263 260 258 256 251 249 250 250 247 242 242 244 245 247 243 242 244 240 237 236 234 232 233 232 231 228 225 225
274 268 267 270 271 272 276 273 270 276 277 278 278 279 279 275 274 273 268 263 259 255 254 252 251 248 242 241 236 234 240 241 236 232 231 230 231 232 228 228 233 235 235 236 236 234 233 233 234 231 227 227
278 271 265 263 261 266 274 271 268 271 272 275 276 276 277 276 281 282 269 259 254 251 252 249 246 239 227 224 224 230 234 236 235 233 231 228 226 226 224 222 223 227 231 234 236 235 234 234 235 235 231 229
278 274 266 260 257 258 264 270 272 271 266 269 272 275 281 283 287 288 276 260 254 261 266 260 250 236 225 219 220 229 232 233 233 233 233 231 227 225 224 223 223 224 226 227 230 232 231 229 230 230 229 229
276 274 268 260 259 259 259 265 268 267 267 267 269 276 284 285 282 283 281 272 273 284 285 271 250 234 226 222 219 224 231 233 232 231 233 233 232 230 227 225 224 224 224 224 225 226 227 226 225 224 224 225
274 272 269 263 260 260 260 262 258 259 266 267 269 277 282 283 282 278 276 281 286 290 292 275 248 234 230 229 227 223 224 229 229 229 230 231 232 233 233 231 230 228 227 226 227 229 230 230 229 227 226 226
271 269 267 263 261 261 259 260 258 257 262 264 267 273 277 280 282 278 270 274 278 281 286 269 248 243 237 235 235 226 221 222 228 236 237 236 235 235 236 236 236 236 235 234 233 233 234 236 235 234 232 232
269 267 265 262 261 262 260 257 257 258 261 262 265 270 275 277 277 276 270 267 266 270 274 260 248 247 239 239 236 228 223 222 226 234 238 239 240 240 239 238 239 240 240 240 240 239 239 240 240 238 236 235
265 264 261 259 260 263 263 261 257 257 257 258 261 265 268 269 269 268 265 262 257 258 260 250 243 243 243 248 241 231 228 229 229 230 235 238 238 240 240 239 240 241 242 243 244 244 243 243 243 242 240 239
261 260 257 253 257 261 263 263 260 256 254 253 255 260 264 266 268 265 257 254 254 253 251 240 236 239 245 252 246 234 229 232 233 230 232 236 237 237 237 238 240 242 243 244 247 248 248 247 246 245 243 242
263 258 255 248 246 254 260 263 262 259 256 253 252 255 263 268 268 267 263 257 251 249 249 243 240 242 242 245 246 242 237 234 234 233 232 233 234 234 234 236 238 240 241 243 246 249 252 252 251 250 248 246
267 260 256 249 241 245 256 264 264 263 261 255 250 249 255 266 267 266 269 261 248 247 254 252 244 243 243 242 243 244 243 239 235 234 233 233 234 234 236 237 239 240 239 239 241 244 248 251 253 253 252 250
269 263 257 251 246 242 247 261 264 263 264 261 255 248 244 252 259 262 266 261 253 256 260 255 243 240 242 241 243 243 243 241 237 235 234 235 236 236 237 237 238 239 238 238 238 240 243 245 248 249 250 250
270 266 260 252 248 244 241 252 261 260 263 262 259 255 247 244 246 254 261 259 259 259 255 249 245 247 247 242 241 241 243 242 236 234 234 234 236 236 235 235 236 237 236 236 235 236 238 241 244 245 246 246
270 268 265 257 248 245 242 246 253 258 262 261 259 256 252 248 244 246 251 253 257 256 253 251 251 256 253 245 244 242 242 244 239 235 234 233 234 235 235 235 236 237 237 235 233 233 234 237 240 242 243 244
268 265 266 264 255 248 245 245 247 252 254 252 256 257 251 250 248 245 246 248 250 251 255 255 253 259 260 256 259 252 242 242 242 237 235 235 236 237 238 239 239 240 239 238 235 233 233 234 237 239 241 243
265 260 258 262 263 257 250 245 244 249 249 243 248 253 250 248 249 249 246 244 245 248 253 252 251 260 267 267 268 261 249 245 246 244 241 239 239 240 240 240 241 241 241 241 238 235 234 235 236 238 240 241
265 258 251 249 257 259 253 244 241 249 254 247 242 242 240 241 242 244 244 244 245 245 249 253 251 254 261 263 263 262 258 253 252 252 252 249 245 242 241 240 241 241 242 241 237 234 234 236 238 239 241 241
270 262 253 245 245 250 251 244 242 249 253 252 253 246 237 238 238 237 239 240 243 242 244 250 250 248 251 252 253 255 256 256 256 260 264 260 252 246 245 243 241 241 241 239 235 233 233 235 237 239 242 243
275 269 261 250 244 246 251 250 247 249 249 248 254 255 249 248 248 246 241 236 237 240 242 244 246 249 249 246 245 246 249 254 256 261 268 266 259 252 250 250 248 244 241 239 237 235 233 233 234 236 238 240
275 273 271 264 255 250 252 253 251 250 251 249 250 252 252 254 255 255 253 244 237 237 239 238 242 247 248 245 243 242 244 248 251 255 261 264 261 256 254 256 256 251 246 243 241 238 235 232 231 232 234 237
278 273 270 269 268 263 258 257 254 252 256 259 259 258 257 255 252 251 254 253 246 242 242 240 240 241 241 243 245 245 245 248 251 254 256 257 259 257 256 258 259 258 255 251 249 247 244 239 234 232 233 235
285 279 273 267 262 263 263 263 260 255 255 260 263 264 263 260 258 255 255 256 254 249 247 248 247 244 239 238 241 245 249 253 256 257 255 254 254 253 255 258 259 258 258 257 254 253 253 249 244 237 232 231
292 289 284 280 273 269 266 264 265 262 259 260 262 264 265 265 265 265 262 262 261 259 256 254 255 255 250 244 240 241 246 251 254 255 254 254 254 250 249 253 255 254 256 258 256 255 256 255 252 247 238 231
Height
3096 3095 3094 3094 3092 3092 3091 3086 3087 3088 3088 3091 3091 3091 3093 3094 3094 3096 3097 3098 3100 3101 3102 3102 3103 3102 3101 3102 3104 3104 3105 3105 3105 3106 3107 3108 3108 3109 3110 3111 3112 3114 3116 3117 3119 3120 3123 3124 3125 3126 3127 3127
3094 3094 3092 3092 3090 3089 3086 3080 3081 3086 3087 3089 3089 3089 3090 3092 3093 3096 3097 3098 3099 3099 3100 3100 3100 3100 3100 3101 3101 3102 3103 3103 3103 3103 3104 3106 3106 3107 3107 3108 3110 3111 3113 3114 3116 3117 3119 3121 3122 3124 3125 3125
3093 3092 3090 3089 3088 3087 3084 3083 3085 3087 3087 3088 3089 3089 3090 3091 3093 3095 3096 3096 3097 3097 3097 3098 3098 3098 3099 3099 3099 3100 3100 3101 3101 3101 3102 3103 3104 3105 3105 3106 3108 3109 3110 3112 3113 3115 3116 3118 3120 3121 3123 3123
3092 3091 3090 3087 3087 3087 3086 3086 3088 3088 3088 3088 3088 3090 3091 3091 3091 3092 3093 3094 3095 3095 3095 3095 3095 3096 3096 3096 3096 3096 3097 3097 3098 3098 3099 3100 3102 3102 3103 3104 3105 3107 3108 3109 3111 3112 3113 3114 3116 3118 3120 3121
3090 3089 3090 3088 3087 3088 3088 3087 3088 3088 3088 3088 3088 3089 3090 3089 3090 3090 3091 3092 3093 3093 3093 3092 3092 3093 3093 3093 3093 3093 3093 3093 3094 3095 3096 3098 3099 3099 3101 3101 3103 3104 3105 3106 3107 3109 3110 3110 3112 3114 3116 3118
3089 3088 3088 3088 3087 3087 3087 3086 3086 3086 3086 3087 3086 3086 3087 3088 3088 3088 3089 3090 3090 3090 3090 3090 3090 3090 3090 3090 3090 3089 3090 3091 3092 3092 3093 3095 3096 3097 3098 3099 3100 3102 3103 3104 3105 3106 3107 3107 3108 3110 3112 3114
3087 3087 3086 3087 3087 3086 3086 3085 3085 3084 3084 3084 3083 3083 3085 3086 3086 3086 3087 3087 3088 3088 3088 3088 3088 3088 3088 3088 3088 3087 3088 3089 3090 3091 3091 3093 3094 3095 3096 3096 3098 3100 3101 3101 3102 3104 3105 3105 3106 3108 3110 3111
3085 3085 3085 3085 3085 3084 3084 3084 3084 3083 3082 3081 3081 3081 3082 3083 3084 3084 3084 3084 3085 3085 3086 3086 3087 3087 3087 3087 3087 3087 3087 3088 3089 3091 3091 3092 3093 3093 3094 3095 3096 3097 3099 3100 3101 3103 3103 3104 3105 3106 3108 3109
3084 3083 3083 3083 3084 3083 3082 3082 3082 3081 3081 3081 3080 3080 3080 3080 3082 3082 3082 3082 3082 3083 3084 3084 3085 3086 3086 3085 3086 3086 3086 3087 3089 3090 3091 3092 3092 3092 3093 3094 3095 3096 3097 3098 3100 3101 3103 3103 3104 3105 3106 3107
3081 3082 3081 3081 3082 3081 3080 3080 3079 3079 3079 3079 3079 3079 3078 3078 3080 3080 3080 3080 3080 3081 3082 3083 3083 3084 3084 3084 3084 3085 3085 3086 3087 3089 3090 3090 3091 3091 3092 3093 3094 3095 3096 3097 3098 3100 3101 3102 3103 3104 3105 3106
3079 3079 3079 3079 3079 3079 3080 3079 3076 3076 3076 3077 3076 3077 3077 3077 3078 3078 3078 3078 3078 3079 3080 3081 3081 3082 3082 3083 3083 3083 3083 3084 3084 3086 3087 3088 3089 3090 3090 3091 3092 3094 3095 3096 3097 3098 3100 3101 3102 3103 3104 3105
3076 3076 3076 3076 3077 3077 3078 3078 3076 3073 3072 3074 3075 3075 3076 3076 3076 3076 3076 3076 3077 3077 3078 3078 3079 3079 3080 3081 3081 3082 3082 3082 3083 3083 3084 3085 3087 3087 3088 3089 3090 3092 3093 3094 3095 3096 3098 3099 3100 3101 3102 3103
3073 3073 3073 3074 3074 3075 3075 3075 3075 3073 3070 3071 3073 3073 3073 3074 3074 3075 3075 3075 3075 3075 3075 3075 3076 3077 3078 3078 3079 3079 3080 3081 3081 3082 3082 3083 3084 3085 3086 3087 3088 3089 3090 3092 3093 3094 3095 3097 3098 3099 3100 3101
3071 3070 3071 3071 3071 3071 3071 3071 3072 3072 3070 3070 3071 3071 3071 3072 3073 3073 3073 3073 3072 3073 3073 3073 3073 3075 3076 3076 3077 3078 3078 3079 3080 3080 3081 3081 3082 3083 3084 3085 3086 3087 3088 3089 3090 3091 3093 3094 3095 3097 3098 3098
3068 3068 3068 3069 3069 3068 3067 3067 3068 3069 3069 3069 3068 3068 3069 3070 3071 3071 3071 3071 3070 3071 3071 3071 3071 3072 3073 3074 3075 3076 3077 3077 3078 3079 3079 3079 3080 3081 3082 3083 3084 3085 3086 3086 3087 3088 3089 3091 3092 3093 3095 3095
3065 3065 3065 3066 3066 3065 3065 3064 3064 3065 3066 3067 3066 3066 3067 3067 3068 3068 3068 3068 3068 3068 3068 3069 3069 3070 3071 3072 3072 3073 3075 3075 3076 3076 3077 3077 3078 3079 3080 3081 3082 3083 3083 3084 3084 3085 3086 3087 3088 3090 3091 3092
3061 3062 3062 3063 3063 3063 3062 3062 3062 3062 3063 3064 3065 3064 3064 3065 3065 3065 3065 3065 3066 3066 3066 3067 3067 3067 3068 3068 3069 3070 3072 3073 3073 3074 3074 3075 3076 3077 3078 3079 3080 3081 3082 3082 3082 3082 3083 3084 3085 3086 3087 3088
3057 3058 3059 3060 3060 3060 3059 3059 3059 3059 3060 3061 3062 3063 3062 3063 3063 3063 3064 3063 3063 3063 3064 3064 3065 3065 3066 3066 3067 3067 3068 3069 3070 3071 3072 3073 3074 3075 3076 3077 3078 3079 3080 3080 3080 3080 3081 3081 3082 3083 3084 3085
3052 3053 3054 3055 3056 3057 3056 3056 3056 3056 3057 3057 3058 3059 3060 3060 3060 3061 3062 3061 3060 3060 3061 3062 3063 3063 3063 3064 3064 3064 3065 3066 3067 3069 3070 3070 3071 3072 3073 3074 3075 3076 3076 3077 3078 3078 3078 3079 3080 3080 3081 3082
3047 3048 3050 3051 3051 3052 3053 3053 3053 3052 3053 3053 3053 3054 3055 3056 3056 3057 3058 3058 3057 3057 3058 3058 3059 3060 3060 3061 3062 3062 3062 3063 3064 3065 3066 3067 3068 3069 3070 3071 3071 3072 3073 3073 3074 3075 3075 3076 3077 3078 3078 3079
3042 3043 3044 3046 3047 3048 3049 3050 3049 3048 3048 3049 3049 3049 3050 3051 3052 3053 3053 3054 3054 3055 3055 3054 3055 3056 3056 3057 3058 3059 3059 3060 3061 3062 3062 3063 3064 3065 3066 3067 3067 3068 3069 3069 3070 3070 3071 3072 3073 3074 3075 3075
3039 3039 3040 3041 3042 3043 3044 3045 3045 3045 3045 3045 3045 3045 3046 3047 3047 3048 3049 3049 3050 3051 3052 3051 3051 3052 3053 3053 3054 3055 3056 3056 3057 3058 3058 3059 3060 3061 3062 3063 3063 3064 3064 3065 3065 3066 3067 3068 3069 3070 3071 3071
3037 3037 3037 3037 3037 3038 3039 3040 3041 3042 3041 3041 3041 3041 3042 3042 3043 3043 3044 3044 3045 3046 3047 3047 3047 3048 3049 3050 3050 3051 3052 3052 3052 3053 3054 3055 3056 3057 3058 3059 3059 3059 3060 3060 3060 3061 3062 3063 3064 3065 3066 3067
3034 3034 3034 3035 3034 3035 3035 3036 3037 3038 3037 3036 3036 3037 3037 3038 3038 3039 3039 3040 3041 3041 3041 3042 3043 3043 3044 3045 3046 3046 3047 3048 3048 3049 3049 3050 3051 3052 3053 3053 3054 3055 3056 3056 3057 3057 3058 3058 3059 3061 3062 3063
3031 3031 3031 3032 3032 3031 3032 3033 3033 3033 3033 3032 3032 3032 3031 3032 3033 3033 3034 3035 3035 3036 3037 3037 3038 3038 3038 3039 3040 3042 3043 3044 3044 3045 3045 3046 3046 3047 3047 3048 3049 3050 3051 3052 3052 3052 3053 3055 3056 3057 3057 3058
3028 3027 3027 3028 3028 3028 3027 3028 3029 3028 3028 3028 3028 3027 3027 3027 3028 3028 3028 3029 3030 3031 3032 3032 3033 3033 3033 3034 3035 3037 3038 3039 3039 3040 3041 3041 3042 3042 3043 3043 3044 3046 3047 3047 3048 3048 3049 3050 3051 3052 3053 3054
3026 3025 3025 3024 3024 3024 3023 3024 3024 3024 3024 3024 3024 3024 3023 3023 3023 3023 3023 3024 3025 3026 3027 3027 3028 3028 3028 3029 3030 3031 3032 3033 3034 3035 3035 3036 3037 3038 3038 3039 3040 3041 3042 3043 3044 3044 3044 3045 3046 3047 3048 3049
3025 3024 3023 3022 3021 3021 3020 3020 3020 3020 3020 3020 3019 3019 3019 3019 3019 3019 3019 3019 3019 3019 3021 3021 3022 3023 3024 3024 3025 3026 3027 3028 3029 3029 3030 3030 3031 3033 3034 3034 3036 3037 3038 3039 3040 3040 3040 3040 3041 3041 3044 3046
3023 3022 3021 3020 3019 3018 3017 3016 3016 3016 3015 3015 3014 3014 3014 3015 3015 3015 3015 3015 3014 3013 3014 3015 3015 3016 3017 3018 3019 3020 3021 3022 3023 3024 3025 3025 3026 3027 3029 3029 3030 3032 3033 3034 3035 3036 3037 3037 3037 3038 3040 3043
3022 3020 3019 3018 3017 3016 3015 3014 3013 3013 3012 3011 3011 3010 3010 3009 3010 3010 3010 3010 3009 3009 3010 3010 3010 3010 3011 3011 3012 3013 3015 3016 3017 3018 3019 3020 3020 3022 3023 3023 3024 3026 3028 3029 3030 3031 3033 3033 3034 3034 3036 3037
3019 3018 3017 3016 3015 3014 3013 3012 3011 3010 3009 3008 3007 3006 3006 3005 3005 3005 3004 3004 3004 3004 3005 3005 3006 3006 3006 3006 3006 3007 3009 3010 3011 3012 3013 3014 3015 3016 3017 3017 3017 3019 3021 3022 3024 3026 3027 3029 3030 3031 3031 3031